| time (UTC) | temp C | wind direction | speed KPH | gust KPH | rain 1hr cm | rain 24hr cm | rain mn cm | humidity % | barometer mb |
| 20260508153051 | 18 | 234 | 3.2 | 11.3 | 0.00 | 0.00 | 0.00 | 51 | 1016.0 |
| 20260508152548 | 18 | 251 | 4.8 | 11.3 | 0.00 | 0.00 | 0.00 | 46 | 1015.9 |
| 20260508152024 | 17 | 237 | 4.8 | 11.3 | 0.00 | 0.00 | 0.00 | 47 | 1016.0 |
| 20260508151532 | 17 | 230 | 6.4 | 16.1 | 0.00 | 0.00 | 0.00 | 48 | 1016.0 |
| 20260508151028 | 17 | 329 | 1.6 | 9.7 | 0.00 | 0.00 | 0.00 | 57 | 1015.9 |
| 20260508150035 | 17 | 273 | 6.4 | 12.9 | 0.00 | 0.00 | 0.00 | 47 | 1016.0 |
| 20260508145523 | 17 | 300 | 1.6 | 11.3 | 0.00 | 0.00 | 0.00 | 47 | 1016.1 |
| 20260508145040 | 17 | 227 | 3.2 | 14.5 | 0.00 | 0.00 | 0.00 | 50 | 1016.1 |
| 20260508144555 | 17 | 262 | 6.4 | 14.5 | 0.00 | 0.00 | 0.00 | 48 | 1016.2 |
| 20260508144021 | 17 | 327 | 1.6 | 12.9 | 0.00 | 0.00 | 0.00 | 51 | 1016.2 |
| 20260508143517 | 16 | 292 | 6.4 | 11.3 | 0.00 | 0.00 | 0.00 | 49 | 1016.1 |
| 20260508143022 | 16 | 260 | 3.2 | 11.3 | 0.00 | 0.00 | 0.00 | 54 | 1016.2 |
| 20260508142520 | 16 | 299 | 3.2 | 11.3 | 0.00 | 0.00 | 0.00 | 53 | 1016.2 |
| 20260508142057 | 16 | 276 | 0.0 | 12.9 | 0.00 | 0.00 | 0.00 | 54 | 1016.2 |
| 20260508141524 | 16 | 227 | 4.8 | 12.9 | 0.00 | 0.00 | 0.00 | 56 | 1016.3 |
| 20260508141029 | 15 | 270 | 3.2 | 11.3 | 0.00 | 0.00 | 0.00 | 58 | 1016.2 |
| 20260508140050 | 15 | 232 | 3.2 | 8.0 | 0.00 | 0.00 | 0.00 | 63 | 1016.3 |
| 20260508135546 | 15 | 135 | 0.0 | 1.6 | 0.00 | 0.00 | 0.00 | 71 | 1016.3 |
| 20260508135033 | 14 | 135 | 0.0 | 1.6 | 0.00 | 0.00 | 0.00 | 72 | 1016.3 |
| 20260508134522 | 13 | 135 | 0.0 | 0.0 | 0.00 | 0.00 | 0.00 | 69 | 1016.4 |
| 20260508134019 | 13 | 135 | 0.0 | 0.0 | 0.00 | 0.00 | 0.00 | 72 | 1016.5 |
| 20260508133526 | 12 | 135 | 0.0 | 0.0 | 0.00 | 0.00 | 0.00 | 70 | 1016.5 |
| 20260508133024 | 12 | 135 | 0.0 | 0.0 | 0.00 | 0.00 | 0.00 | 73 | 1016.5 |
| 20260508132620 | 12 | 135 | 0.0 | 0.0 | 0.00 | 0.00 | 0.00 | 75 | 1016.5 |
| 20260508132052 | 11 | 135 | 0.0 | 0.0 | 0.00 | 0.00 | 0.00 | 78 | 1016.5 |
| 20260508131519 | 11 | 135 | 0.0 | 1.6 | 0.00 | 0.00 | 0.00 | 76 | 1016.6 |
| 20260508131056 | 11 | 135 | 0.0 | 3.2 | 0.00 | 0.00 | 0.00 | 80 | 1016.6 |
| 20260508130532 | 10 | 135 | 0.0 | 0.0 | 0.00 | 0.00 | 0.00 | 82 | 1016.6 |
| 20260508130029 | 9 | 135 | 0.0 | 0.0 | 0.00 | 0.00 | 0.00 | 85 | 1016.6 |
| 20260508125526 | 8 | 135 | 0.0 | 0.0 | 0.00 | 0.00 | 0.00 | 85 | 1016.6 |
| 20260508125035 | 8 | 65 | 0.0 | 0.0 | 0.00 | 0.00 | 0.00 | 88 | 1016.7 |
| 20260508124532 | 8 | 327 | 0.0 | 0.0 | 0.00 | 0.00 | 0.00 | 91 | 1016.8 |
| 20260508124020 | 7 | 327 | 0.0 | 0.0 | 0.00 | 0.00 | 0.00 | 94 | 1016.8 |
| 20260508123533 | 7 | 322 | 0.0 | 0.0 | 0.00 | 0.00 | 0.00 | 96 | 1016.8 |
| 20260508123021 | 6 | 324 | 0.0 | 0.0 | 0.00 | 0.00 | 0.00 | 96 | 1016.8 |
| 20260508122618 | 6 | 324 | 0.0 | 0.0 | 0.00 | 0.00 | 0.00 | 96 | 1016.7 |
| 20260508122050 | 6 | 324 | 0.0 | 0.0 | 0.00 | 0.00 | 0.00 | 97 | 1016.8 |
| 20260508121546 | 5 | 324 | 0.0 | 0.0 | 0.00 | 0.00 | 0.00 | 97 | 1016.7 |
| 20260508121041 | 5 | 324 | 0.0 | 0.0 | 0.00 | 0.00 | 0.00 | 96 | 1016.7 |
| 20260508120618 | 5 | 324 | 0.0 | 0.0 | 0.00 | 0.00 | 0.00 | 97 | 1016.7 |
| 20260508120030 | 5 | 324 | 0.0 | 0.0 | 0.00 | 0.00 | 0.00 | 97 | 1016.6 |
| 20260508115519 | 4 | 324 | 526.3 | 526.3 | 0.00 | 0.00 | 0.00 | 96 | 1016.5 |
| 20260508115019 | 3 | 324 | 0.0 | 0.0 | 0.00 | 0.00 | 0.00 | 96 | 1016.6 |
| 20260508114558 | 3 | 324 | 0.0 | 0.0 | 0.00 | 0.00 | 0.00 | 96 | 1016.7 |
| 20260508114021 | 3 | 324 | 0.0 | 0.0 | 0.00 | 0.00 | 0.00 | 96 | 1016.7 |
| 20260508113526 | 3 | 324 | 0.0 | 0.0 | 0.00 | 0.00 | 0.00 | 96 | 1016.7 |
| 20260508113103 | 3 | 324 | 0.0 | 0.0 | 0.00 | 0.00 | 0.00 | 96 | 1016.6 |
| 20260508112530 | 2 | 324 | 0.0 | 0.0 | 0.00 | 0.00 | 0.00 | 96 | 1016.6 |
| 20260508112028 | 2 | 324 | 0.0 | 0.0 | 0.00 | 0.00 | 0.00 | 96 | 1016.6 |
| 20260508111532 | 2 | 324 | 0.0 | 0.0 | 0.00 | 0.00 | 0.00 | 96 | 1016.5 |
| 20260508111049 | 2 | 324 | 0.0 | 0.0 | 0.00 | 0.00 | 0.00 | 96 | 1016.4 |
| 20260508110545 | 2 | 324 | 0.0 | 0.0 | 0.00 | 0.00 | 0.00 | 96 | 1016.5 |
| 20260508110032 | 2 | 324 | 0.0 | 0.0 | 0.00 | 0.00 | 0.00 | 96 | 1016.4 |
| 20260508105530 | 2 | 324 | 0.0 | 0.0 | 0.00 | 0.00 | 0.00 | 96 | 1016.3 |
| 20260508105026 | 2 | 324 | 0.0 | 0.0 | 0.00 | 0.00 | 0.00 | 95 | 1016.2 |
| 20260508104544 | 2 | 324 | 0.0 | 0.0 | 0.00 | 0.00 | 0.00 | 95 | 1016.2 |
| 20260508104039 | 2 | 324 | 0.0 | 0.0 | 0.00 | 0.00 | 0.00 | 95 | 1016.2 |
| 20260508103526 | 2 | 325 | 0.0 | 0.0 | 0.00 | 0.00 | 0.00 | 95 | 1016.2 |
| 20260508103023 | 2 | 325 | 0.0 | 0.0 | 0.00 | 0.00 | 0.00 | 95 | 1016.2 |
| 20260508102529 | 2 | 325 | 526.3 | 526.3 | 0.00 | 0.00 | 0.00 | 95 | 1016.0 |
| 20260508102044 | 2 | 325 | 0.0 | 0.0 | 0.00 | 0.00 | 0.00 | 95 | 1016.1 |
| 20260508101532 | 2 | 325 | 0.0 | 0.0 | 0.00 | 0.00 | 0.00 | 95 | 1016.1 |
| 20260508101029 | 2 | 325 | 0.0 | 0.0 | 0.00 | 0.00 | 0.00 | 95 | 1016.0 |
| 20260508100517 | 2 | 325 | 0.0 | 0.0 | 0.00 | 0.00 | 0.00 | 96 | 1016.0 |
| 20260508100047 | 2 | 325 | 0.0 | 0.0 | 0.00 | 0.00 | 0.00 | 96 | 1015.9 |
| 20260508095545 | 2 | 325 | 0.0 | 0.0 | 0.00 | 0.00 | 0.00 | 96 | 1015.9 |
| 20260508095028 | 2 | 325 | 0.0 | 0.0 | 0.00 | 0.00 | 0.00 | 96 | 1016.0 |
| 20260508094526 | 2 | 325 | 0.0 | 0.0 | 0.00 | 0.00 | 0.00 | 96 | 1016.0 |
| 20260508094033 | 2 | 325 | 0.0 | 0.0 | 0.00 | 0.00 | 0.00 | 96 | 1015.9 |
| 20260508093539 | 2 | 325 | 0.0 | 0.0 | 0.00 | 0.00 | 0.00 | 96 | 1015.9 |
| 20260508093027 | 2 | 325 | 0.0 | 0.0 | 0.00 | 0.00 | 0.00 | 95 | 1015.9 |
| 20260508092544 | 2 | 325 | 0.0 | 0.0 | 0.00 | 0.00 | 0.00 | 96 | 1015.9 |
| 20260508092101 | 2 | 325 | 0.0 | 0.0 | 0.00 | 0.00 | 0.00 | 95 | 1015.8 |
| 20260508091553 | 2 | 325 | 0.0 | 0.0 | 0.00 | 0.00 | 0.00 | 95 | 1015.9 |
| 20260508091020 | 2 | 325 | 0.0 | 0.0 | 0.00 | 0.00 | 0.00 | 95 | 1015.9 |
| 20260508090618 | 3 | 325 | 0.0 | 0.0 | 0.00 | 0.00 | 0.00 | 95 | 1015.8 |
| 20260508085529 | 3 | 325 | 0.0 | 0.0 | 0.00 | 0.00 | 0.00 | 96 | 1015.8 |
| 20260508085026 | 3 | 325 | 0.0 | 0.0 | 0.00 | 0.00 | 0.00 | 95 | 1015.8 |
| 20260508084534 | 3 | 325 | 0.0 | 0.0 | 0.00 | 0.00 | 0.00 | 95 | 1015.8 |
| 20260508084039 | 3 | 325 | 0.0 | 0.0 | 0.00 | 0.00 | 0.00 | 96 | 1015.7 |
| 20260508083527 | 3 | 325 | 0.0 | 0.0 | 0.00 | 0.00 | 0.00 | 96 | 1015.6 |
| 20260508083044 | 3 | 325 | 0.0 | 0.0 | 0.00 | 0.00 | 0.00 | 96 | 1015.6 |
| 20260508082533 | 3 | 325 | 0.0 | 0.0 | 0.00 | 0.00 | 0.00 | 96 | 1015.6 |
| 20260508082022 | 2 | 325 | 0.0 | 0.0 | 0.00 | 0.00 | 0.00 | 96 | 1015.6 |
| 20260508081518 | 2 | 325 | 0.0 | 0.0 | 0.00 | 0.00 | 0.00 | 96 | 1015.6 |
| 20260508081035 | 2 | 325 | 0.0 | 0.0 | 0.00 | 0.00 | 0.00 | 96 | 1015.7 |
| 20260508080532 | 2 | 325 | 0.0 | 0.0 | 0.00 | 0.00 | 0.00 | 95 | 1015.6 |
| 20260508080049 | 2 | 325 | 0.0 | 0.0 | 0.00 | 0.00 | 0.00 | 95 | 1015.6 |
| 20260508075516 | 2 | 325 | 0.0 | 0.0 | 0.00 | 0.00 | 0.00 | 95 | 1015.6 |
| 20260508075030 | 2 | 325 | 0.0 | 0.0 | 0.00 | 0.00 | 0.00 | 95 | 1015.5 |
| 20260508074519 | 2 | 325 | 0.0 | 0.0 | 0.00 | 0.00 | 0.00 | 96 | 1015.5 |
| 20260508074036 | 2 | 325 | 0.0 | 0.0 | 0.00 | 0.00 | 0.00 | 95 | 1015.6 |
| 20260508073553 | 1 | 325 | 0.0 | 0.0 | 0.00 | 0.00 | 0.00 | 95 | 1015.5 |
| 20260508073109 | 2 | 325 | 0.0 | 0.0 | 0.00 | 0.00 | 0.00 | 95 | 1015.4 |
| 20260508072534 | 2 | 325 | 0.0 | 0.0 | 0.00 | 0.00 | 0.00 | 95 | 1015.5 |
| 20260508072050 | 2 | 325 | 0.0 | 0.0 | 0.00 | 0.00 | 0.00 | 95 | 1015.5 |
| 20260508071517 | 2 | 325 | 0.0 | 0.0 | 0.00 | 0.00 | 0.00 | 95 | 1015.4 |
| 20260508071054 | 1 | 325 | 0.0 | 0.0 | 0.00 | 0.00 | 0.00 | 95 | 1015.4 |
| 20260508070530 | 1 | 325 | 0.0 | 0.0 | 0.00 | 0.00 | 0.00 | 94 | 1015.4 |
| 20260508070018 | 1 | 325 | 0.0 | 0.0 | 0.00 | 0.00 | 0.00 | 94 | 1015.4 |
| 20260508065555 | 2 | 325 | 0.0 | 0.0 | 0.00 | 0.00 | 0.00 | 94 | 1015.4 |
| 20260508064549 | 2 | 325 | 0.0 | 0.0 | 0.00 | 0.00 | 0.00 | 94 | 1015.5 |
| 20260508064017 | 2 | 325 | 0.0 | 0.0 | 0.00 | 0.00 | 0.00 | 94 | 1015.5 |
| 20260508063033 | 2 | 325 | 0.0 | 0.0 | 0.00 | 0.00 | 0.00 | 95 | 1015.7 |
| 20260508062521 | 2 | 325 | 0.0 | 0.0 | 0.00 | 0.00 | 0.00 | 95 | 1015.6 |
| 20260508062038 | 2 | 325 | 0.0 | 0.0 | 0.00 | 0.00 | 0.00 | 94 | 1015.7 |
| 20260508061047 | 2 | 325 | 0.0 | 0.0 | 0.00 | 0.00 | 0.00 | 93 | 1015.7 |
| 20260508060515 | 2 | 325 | 0.0 | 0.0 | 0.00 | 0.00 | 0.00 | 93 | 1015.7 |
| 20260508060033 | 2 | 325 | 0.0 | 0.0 | 0.00 | 0.00 | 0.00 | 93 | 1015.8 |
| 20260508055541 | 2 | 325 | 0.0 | 0.0 | 0.00 | 0.00 | 0.00 | 93 | 1015.8 |
| 20260508055018 | 2 | 325 | 0.0 | 0.0 | 0.00 | 0.00 | 0.00 | 93 | 1015.7 |
| 20260508054535 | 3 | 325 | 0.0 | 0.0 | 0.00 | 0.00 | 0.00 | 94 | 1015.7 |
| 20260508054044 | 3 | 325 | 0.0 | 0.0 | 0.00 | 0.00 | 0.00 | 94 | 1015.6 |
| 20260508053529 | 3 | 325 | 0.0 | 0.0 | 0.00 | 0.00 | 0.00 | 94 | 1015.6 |
| 20260508053037 | 3 | 325 | 0.0 | 0.0 | 0.00 | 0.00 | 0.00 | 94 | 1015.6 |
| 20260508052533 | 3 | 325 | 0.0 | 0.0 | 0.00 | 0.00 | 0.00 | 94 | 1015.6 |
| 20260508052021 | 2 | 325 | 0.0 | 0.0 | 0.00 | 0.00 | 0.00 | 93 | 1015.5 |
| 20260508051519 | 3 | 325 | 0.0 | 0.0 | 0.00 | 0.00 | 0.00 | 93 | 1015.5 |
| 20260508051036 | 3 | 325 | 0.0 | 0.0 | 0.00 | 0.00 | 0.00 | 93 | 1015.4 |
| 20260508050550 | 3 | 325 | 0.0 | 0.0 | 0.00 | 0.00 | 0.00 | 94 | 1015.5 |
| 20260508050026 | 3 | 325 | 0.0 | 0.0 | 0.00 | 0.00 | 0.00 | 93 | 1015.6 |
| 20260508045529 | 3 | 325 | 0.0 | 0.0 | 0.00 | 0.00 | 0.00 | 93 | 1015.5 |
| 20260508045026 | 3 | 325 | 0.0 | 0.0 | 0.00 | 0.00 | 0.00 | 94 | 1015.5 |
| 20260508044603 | 3 | 325 | 0.0 | 0.0 | 0.00 | 0.00 | 0.00 | 94 | 1015.6 |
| 20260508044030 | 3 | 325 | 0.0 | 0.0 | 0.00 | 0.00 | 0.00 | 93 | 1015.6 |
| 20260508043536 | 3 | 325 | 0.0 | 0.0 | 0.00 | 0.00 | 0.00 | 93 | 1015.6 |
| 20260508043044 | 3 | 325 | 0.0 | 0.0 | 0.00 | 0.00 | 0.00 | 92 | 1015.6 |
| 20260508042520 | 3 | 325 | 0.0 | 0.0 | 0.00 | 0.00 | 0.00 | 92 | 1015.6 |
| 20260508042024 | 3 | 325 | 0.0 | 0.0 | 0.00 | 0.00 | 0.00 | 92 | 1015.5 |
| 20260508041521 | 3 | 325 | 0.0 | 0.0 | 0.00 | 0.00 | 0.00 | 93 | 1015.5 |
| 20260508041029 | 3 | 325 | 0.0 | 0.0 | 0.00 | 0.00 | 0.00 | 93 | 1015.5 |
| 20260508040059 | 3 | 325 | 0.0 | 0.0 | 0.00 | 0.00 | 0.00 | 91 | 1015.5 |
| 20260508035544 | 3 | 325 | 0.0 | 0.0 | 0.00 | 0.00 | 0.00 | 92 | 1015.5 |
| 20260508035048 | 3 | 325 | 0.0 | 0.0 | 0.00 | 0.00 | 0.00 | 92 | 1015.5 |
| 20260508034531 | 4 | 325 | 0.0 | 0.0 | 0.00 | 0.00 | 0.00 | 92 | 1015.6 |
| 20260508034020 | 4 | 325 | 0.0 | 0.0 | 0.00 | 0.00 | 0.00 | 91 | 1015.6 |
| 20260508033537 | 4 | 325 | 0.0 | 0.0 | 0.00 | 0.00 | 0.00 | 90 | 1015.5 |
| 20260508033024 | 4 | 325 | 0.0 | 0.0 | 0.00 | 0.00 | 0.00 | 91 | 1015.6 |
| 20260508032541 | 4 | 325 | 0.0 | 0.0 | 0.00 | 0.00 | 0.00 | 91 | 1015.6 |
| 20260508032029 | 4 | 325 | 0.0 | 0.0 | 0.00 | 0.00 | 0.00 | 90 | 1015.6 |
| 20260508031517 | 5 | 325 | 0.0 | 0.0 | 0.00 | 0.00 | 0.00 | 90 | 1015.6 |
| 20260508031034 | 5 | 325 | 0.0 | 0.0 | 0.00 | 0.00 | 0.00 | 89 | 1015.6 |
| 20260508030530 | 5 | 325 | 0.0 | 0.0 | 0.00 | 0.00 | 0.00 | 89 | 1015.5 |
| 20260508030019 | 5 | 325 | 0.0 | 0.0 | 0.00 | 0.00 | 0.00 | 90 | 1015.4 |
| 20260508025536 | 5 | 325 | 0.0 | 0.0 | 0.00 | 0.00 | 0.00 | 89 | 1015.4 |
| 20260508025025 | 5 | 325 | 0.0 | 0.0 | 0.00 | 0.00 | 0.00 | 88 | 1015.4 |
| 20260508024542 | 5 | 325 | 0.0 | 0.0 | 0.00 | 0.00 | 0.00 | 88 | 1015.4 |
| 20260508024030 | 5 | 325 | 0.0 | 0.0 | 0.00 | 0.00 | 0.00 | 88 | 1015.3 |
| 20260508023529 | 5 | 325 | 0.0 | 0.0 | 0.00 | 0.00 | 0.00 | 87 | 1015.1 |
| 20260508023016 | 5 | 325 | 0.0 | 0.0 | 0.00 | 0.00 | 0.00 | 87 | 1015.0 |
| 20260508022534 | 5 | 325 | 0.0 | 0.0 | 0.00 | 0.00 | 0.00 | 86 | 1014.9 |
| 20260508022022 | 6 | 325 | 0.0 | 0.0 | 0.00 | 0.00 | 0.00 | 86 | 1014.9 |
| 20260508021538 | 6 | 325 | 0.0 | 0.0 | 0.00 | 0.00 | 0.00 | 85 | 1014.8 |
| 20260508021026 | 6 | 325 | 0.0 | 0.0 | 0.00 | 0.00 | 0.00 | 84 | 1014.8 |
| 20260508020543 | 6 | 325 | 0.0 | 0.0 | 0.00 | 0.00 | 0.00 | 84 | 1014.7 |
| 20260508020031 | 6 | 325 | 0.0 | 0.0 | 0.00 | 0.00 | 0.00 | 83 | 1014.6 |
| 20260508015544 | 7 | 325 | 0.0 | 0.0 | 0.00 | 0.00 | 0.00 | 82 | 1014.6 |
| 20260508015040 | 7 | 325 | 0.0 | 0.0 | 0.00 | 0.00 | 0.00 | 82 | 1014.5 |
| 20260508014529 | 7 | 325 | 0.0 | 0.0 | 0.00 | 0.00 | 0.00 | 81 | 1014.5 |
| 20260508014016 | 7 | 325 | 0.0 | 0.0 | 0.00 | 0.00 | 0.00 | 81 | 1014.4 |
| 20260508013033 | 7 | 325 | 526.3 | 526.3 | 0.00 | 0.00 | 0.00 | 79 | 1014.0 |
| 20260508012528 | 8 | 325 | 0.0 | 0.0 | 0.00 | 0.00 | 0.00 | 78 | 1014.1 |
| 20260508011553 | 8 | 325 | 0.0 | 0.0 | 0.00 | 0.00 | 0.00 | 77 | 1013.9 |
| 20260508011019 | 8 | 325 | 0.0 | 0.0 | 0.00 | 0.00 | 0.00 | 77 | 1013.9 |
| 20260508010517 | 8 | 325 | 0.0 | 0.0 | 0.00 | 0.00 | 0.00 | 76 | 1013.8 |
| 20260508010032 | 9 | 325 | 0.0 | 0.0 | 0.00 | 0.00 | 0.00 | 73 | 1013.8 |
| 20260508005538 | 10 | 325 | 0.0 | 0.0 | 0.00 | 0.00 | 0.00 | 71 | 1013.7 |
| 20260508005034 | 10 | 325 | 0.0 | 0.0 | 0.00 | 0.00 | 0.00 | 69 | 1013.7 |
| 20260508004522 | 10 | 325 | 0.0 | 0.0 | 0.00 | 0.00 | 0.00 | 67 | 1013.6 |
| 20260508004019 | 11 | 325 | 0.0 | 0.0 | 0.00 | 0.00 | 0.00 | 68 | 1013.6 |
| 20260508003527 | 11 | 280 | 0.0 | 0.0 | 0.00 | 0.00 | 0.00 | 68 | 1013.5 |
| 20260508003024 | 11 | 284 | 0.0 | 0.0 | 0.00 | 0.00 | 0.00 | 67 | 1013.4 |
| 20260508002541 | 11 | 315 | 0.0 | 0.0 | 0.00 | 0.00 | 0.00 | 66 | 1013.4 |
| 20260508002049 | 11 | 138 | 0.0 | 0.0 | 0.00 | 0.00 | 0.00 | 66 | 1013.3 |
| 20260508001525 | 12 | 138 | 0.0 | 0.0 | 0.00 | 0.00 | 0.00 | 64 | 1013.3 |
| 20260508001102 | 12 | 138 | 0.0 | 0.0 | 0.00 | 0.00 | 0.00 | 66 | 1013.2 |
| 20260508000529 | 12 | 138 | 0.0 | 0.0 | 0.00 | 0.00 | 0.00 | 63 | 1013.0 |
| 20260508000043 | 12 | 138 | 0.0 | 0.0 | 0.00 | 0.00 | 0.00 | 62 | 1013.0 |
| 20260507235531 | 12 | 138 | 0.0 | 0.0 | 0.00 | 0.00 | 0.00 | 60 | 1013.0 |
| 20260507235027 | 13 | 138 | 0.0 | 0.0 | 0.00 | 0.00 | 0.00 | 64 | 1012.9 |
| 20260507234535 | 13 | 138 | 0.0 | 0.0 | 0.00 | 0.00 | 0.00 | 62 | 1012.8 |
| 20260507234021 | 13 | 138 | 0.0 | 0.0 | 0.00 | 0.00 | 0.00 | 60 | 1012.7 |
| 20260507233529 | 14 | 138 | 0.0 | 0.0 | 0.00 | 0.00 | 0.00 | 59 | 1012.7 |
| 20260507233043 | 15 | 138 | 0.0 | 0.0 | 0.00 | 0.00 | 0.00 | 57 | 1012.7 |
| 20260507232539 | 15 | 138 | 0.0 | 0.0 | 0.00 | 0.00 | 0.00 | 53 | 1012.6 |
| 20260507232027 | 15 | 138 | 0.0 | 0.0 | 0.00 | 0.00 | 0.00 | 51 | 1012.6 |
| 20260507231022 | 16 | 175 | 0.0 | 12.9 | 0.00 | 0.00 | 0.00 | 38 | 1012.5 |
| 20260507230539 | 16 | 105 | 0.0 | 12.9 | 0.00 | 0.00 | 0.00 | 44 | 1012.5 |
| 20260507230027 | 17 | 215 | 0.0 | 8.0 | 0.00 | 0.00 | 0.00 | 39 | 1012.5 |
| 20260507225516 | 17 | 217 | 0.0 | 8.0 | 0.00 | 0.00 | 0.00 | 36 | 1012.6 |
| 20260507225033 | 17 | 252 | 1.6 | 9.7 | 0.00 | 0.00 | 0.00 | 37 | 1012.6 |
| 20260507224521 | 17 | 166 | 3.2 | 24.1 | 0.00 | 0.00 | 0.00 | 37 | 1012.6 |
| 20260507224018 | 17 | 207 | 4.8 | 24.1 | 0.00 | 0.00 | 0.00 | 41 | 1012.4 |
| 20260507223534 | 17 | 195 | 0.0 | 6.4 | 0.00 | 0.00 | 0.00 | 41 | 1012.5 |
| 20260507223031 | 17 | 192 | 1.6 | 9.7 | 0.00 | 0.00 | 0.00 | 41 | 1012.5 |
| 20260507222518 | 17 | 217 | 1.6 | 11.3 | 0.00 | 0.00 | 0.00 | 37 | 1012.4 |
| 20260507222015 | 17 | 167 | 3.2 | 12.9 | 0.00 | 0.00 | 0.00 | 38 | 1012.3 |
| 20260507221524 | 17 | 259 | 4.8 | 14.5 | 0.00 | 0.00 | 0.00 | 38 | 1012.3 |
| 20260507221020 | 17 | 254 | 8.0 | 22.5 | 0.00 | 0.00 | 0.00 | 39 | 1012.2 |
| 20260507220528 | 18 | 290 | 3.2 | 22.5 | 0.00 | 0.00 | 0.00 | 39 | 1012.2 |
| 20260507220025 | 18 | 298 | 4.8 | 14.5 | 0.00 | 0.00 | 0.00 | 38 | 1012.2 |
| 20260507215533 | 17 | 189 | 0.0 | 14.5 | 0.00 | 0.00 | 0.00 | 39 | 1012.1 |
| 20260507215050 | 17 | 293 | 1.6 | 14.5 | 0.00 | 0.00 | 0.00 | 42 | 1012.0 |
| 20260507214527 | 17 | 115 | 1.6 | 8.0 | 0.00 | 0.00 | 0.00 | 40 | 1012.0 |
| 20260507214024 | 17 | 178 | 1.6 | 12.9 | 0.00 | 0.00 | 0.00 | 41 | 1012.0 |
| 20260507213541 | 18 | 252 | 3.2 | 12.9 | 0.00 | 0.00 | 0.00 | 40 | 1012.0 |
| 20260507213029 | 18 | 138 | 1.6 | 17.7 | 0.00 | 0.00 | 0.00 | 42 | 1011.9 |
| 20260507212517 | 18 | 28 | 4.8 | 17.7 | 0.00 | 0.00 | 0.00 | 39 | 1011.9 |
| 20260507212034 | 18 | 275 | 4.8 | 16.1 | 0.00 | 0.00 | 0.00 | 43 | 1011.7 |
| 20260507211521 | 18 | 325 | 6.4 | 16.1 | 0.00 | 0.00 | 0.00 | 41 | 1011.7 |
| 20260507211026 | 18 | 281 | 1.6 | 17.7 | 0.00 | 0.00 | 0.00 | 41 | 1011.8 |
| 20260507210514 | 18 | 304 | 8.0 | 20.9 | 0.00 | 0.00 | 0.00 | 39 | 1011.8 |
| 20260507210031 | 18 | 305 | 6.4 | 14.5 | 0.00 | 0.00 | 0.00 | 39 | 1011.7 |
| 20260507205519 | 18 | 48 | 1.6 | 11.3 | 0.00 | 0.00 | 0.00 | 40 | 1011.7 |
| 20260507205036 | 18 | 153 | 1.6 | 16.1 | 0.00 | 0.00 | 0.00 | 44 | 1011.6 |
| 20260507204528 | 18 | 156 | 1.6 | 14.5 | 0.00 | 0.00 | 0.00 | 41 | 1011.5 |
| 20260507204036 | 17 | 220 | 3.2 | 14.5 | 0.00 | 0.00 | 0.00 | 41 | 1011.7 |
| 20260507203041 | 18 | 350 | 1.6 | 11.3 | 0.00 | 0.00 | 0.00 | 43 | 1011.6 |
| 20260507202528 | 18 | 241 | 1.6 | 0.0 | 0.00 | 0.00 | 0.00 | 41 | 1011.3 |
| 20260507202022 | 18 | 275 | 3.2 | 9.7 | 0.00 | 0.00 | 0.00 | 40 | 1011.4 |
| 20260507201530 | 18 | 119 | 1.6 | 12.9 | 0.00 | 0.00 | 0.00 | 40 | 1011.5 |
| 20260507201026 | 18 | 158 | 0.0 | 12.9 | 0.00 | 0.00 | 0.00 | 47 | 1011.6 |
| 20260507200514 | 18 | 233 | 3.2 | 17.7 | 0.00 | 0.00 | 0.00 | 41 | 1011.7 |
| 20260507200031 | 18 | 355 | 3.2 | 17.7 | 0.00 | 0.00 | 0.00 | 42 | 1011.8 |
| 20260507195519 | 17 | 271 | 3.2 | 14.5 | 0.00 | 0.00 | 0.00 | 43 | 1011.8 |
| 20260507195016 | 17 | 330 | 3.2 | 16.1 | 0.00 | 0.00 | 0.00 | 48 | 1011.9 |
| 20260507194524 | 18 | 322 | 6.4 | 17.7 | 0.00 | 0.00 | 0.00 | 41 | 1011.8 |
| 20260507194021 | 18 | 293 | 8.0 | 17.7 | 0.00 | 0.00 | 0.00 | 48 | 1011.8 |
| 20260507193529 | 17 | 206 | 0.0 | 20.9 | 0.00 | 0.00 | 0.00 | 43 | 1011.8 |
| 20260507193026 | 17 | 294 | 6.4 | 20.9 | 0.00 | 0.00 | 0.00 | 45 | 1011.9 |
| 20260507192523 | 18 | 292 | 6.4 | 16.1 | 0.00 | 0.00 | 0.00 | 45 | 1011.8 |
| 20260507192040 | 18 | 267 | 4.8 | 19.3 | 0.00 | 0.00 | 0.00 | 48 | 1011.8 |
| 20260507191528 | 18 | 325 | 3.2 | 19.3 | 0.00 | 0.00 | 0.00 | 46 | 1011.9 |
| 20260507191045 | 18 | 332 | 6.4 | 17.7 | 0.00 | 0.00 | 0.00 | 44 | 1012.1 |
| 20260507190541 | 18 | 268 | 3.2 | 24.1 | 0.00 | 0.00 | 0.00 | 49 | 1012.1 |
| 20260507190057 | 17 | 303 | 0.0 | 24.1 | 0.00 | 0.00 | 0.00 | 44 | 1012.1 |
| 20260507185541 | 18 | 249 | 9.7 | 17.7 | 0.00 | 0.03 | 0.00 | 44 | 1012.2 |
| 20260507185016 | 18 | 269 | 6.4 | 17.7 | 0.00 | 0.03 | 0.00 | 45 | 1012.2 |
| 20260507184524 | 17 | 205 | 1.6 | 17.7 | 0.00 | 0.03 | 0.00 | 57 | 1012.2 |
| 20260507184030 | 17 | 106 | 3.2 | 11.3 | 0.00 | 0.03 | 0.00 | 45 | 1012.4 |
| 20260507183518 | 17 | 140 | 0.0 | 11.3 | 0.00 | 0.03 | 0.00 | 47 | 1012.4 |
| 20260507183017 | 17 | 142 | 3.2 | 16.1 | 0.00 | 0.03 | 0.00 | 43 | 1012.4 |
| 20260507182521 | 17 | 325 | 3.2 | 19.3 | 0.00 | 0.03 | 0.00 | 52 | 1012.6 |
| 20260507182027 | 17 | 234 | 4.8 | 19.3 | 0.00 | 0.03 | 0.00 | 48 | 1012.6 |
| 20260507181524 | 17 | 270 | 3.2 | 20.9 | 0.00 | 0.03 | 0.00 | 50 | 1012.5 |
| 20260507181041 | 18 | 19 | 6.4 | 20.9 | 0.00 | 0.03 | 0.00 | 48 | 1012.5 |
| 20260507180559 | 18 | 232 | 3.2 | 12.9 | 0.00 | 0.03 | 0.00 | 50 | 1012.5 |
| 20260507180025 | 17 | 163 | 1.6 | 14.5 | 0.00 | 0.03 | 0.00 | 49 | 1012.5 |
| 20260507175542 | 17 | 193 | 0.0 | 14.5 | 0.00 | 0.03 | 0.00 | 52 | 1012.6 |
| 20260507175050 | 17 | 225 | 4.8 | 14.5 | 0.00 | 0.03 | 0.00 | 51 | 1012.6 |
| 20260507174527 | 17 | 271 | 1.6 | 12.9 | 0.00 | 0.03 | 0.00 | 49 | 1012.7 |
| 20260507174016 | 16 | 219 | 3.2 | 12.9 | 0.00 | 0.03 | 0.00 | 51 | 1012.8 |
| 20260507173534 | 17 | 232 | 1.6 | 14.5 | 0.00 | 0.03 | 0.00 | 52 | 1012.9 |
| 20260507173022 | 17 | 29 | 4.8 | 14.5 | 0.00 | 0.03 | 0.00 | 49 | 1012.9 |
| 20260507172519 | 17 | 325 | 1.6 | 14.5 | 0.00 | 0.03 | 0.00 | 51 | 1012.7 |
| 20260507172027 | 17 | 254 | 1.6 | 12.9 | 0.00 | 0.03 | 0.00 | 51 | 1012.9 |
| 20260507171543 | 17 | 190 | 4.8 | 17.7 | 0.00 | 0.03 | 0.00 | 48 | 1013.0 |
| 20260507171039 | 16 | 304 | 4.8 | 17.7 | 0.00 | 0.03 | 0.00 | 53 | 1013.1 |
| 20260507170526 | 16 | 269 | 4.8 | 17.7 | 0.00 | 0.03 | 0.00 | 54 | 1013.1 |
| 20260507170031 | 16 | 348 | 6.4 | 17.7 | 0.00 | 0.03 | 0.00 | 54 | 1013.1 |
| 20260507165519 | 16 | 243 | 4.8 | 11.3 | 0.00 | 0.03 | 0.00 | 55 | 1013.2 |
| 20260507165016 | 16 | 256 | 3.2 | 11.3 | 0.00 | 0.03 | 0.00 | 51 | 1013.3 |
| 20260507164524 | 16 | 318 | 1.6 | 12.9 | 0.00 | 0.03 | 0.00 | 52 | 1013.2 |
| 20260507164016 | 16 | 325 | 4.8 | 12.9 | 0.00 | 0.03 | 0.00 | 56 | 1013.3 |
| 20260507163533 | 16 | 266 | 3.2 | 16.1 | 0.00 | 0.03 | 0.00 | 54 | 1013.3 |
| 20260507163041 | 16 | 263 | 1.6 | 11.3 | 0.00 | 0.03 | 0.00 | 55 | 1013.3 |
| 20260507162517 | 16 | 294 | 3.2 | 11.3 | 0.00 | 0.03 | 0.00 | 57 | 1013.3 |
| 20260507162025 | 16 | 198 | 1.6 | 11.3 | 0.00 | 0.03 | 0.00 | 56 | 1013.4 |
| 20260507161542 | 15 | 284 | 3.2 | 11.3 | 0.00 | 0.03 | 0.00 | 53 | 1013.5 |
| 20260507161038 | 15 | 188 | 0.0 | 4.8 | 0.00 | 0.03 | 0.00 | 57 | 1013.5 |
| 20260507160616 | 15 | 122 | 0.0 | 8.0 | 0.00 | 0.03 | 0.00 | 61 | 1013.6 |
| 20260507160100 | 15 | 120 | 0.0 | 8.0 | 0.00 | 0.03 | 0.00 | 55 | 1013.5 |
| 20260507155526 | 16 | 124 | 0.0 | 16.1 | 0.00 | 0.03 | 0.00 | 54 | 1013.5 |
| 20260507155043 | 16 | 230 | 0.0 | 16.1 | 0.00 | 0.03 | 0.00 | 53 | 1013.6 |
| 20260507154531 | 16 | 265 | 1.6 | 11.3 | 0.00 | 0.03 | 0.00 | 58 | 1013.6 |
| 20260507154048 | 15 | 223 | 1.6 | 9.7 | 0.00 | 0.03 | 0.00 | 55 | 1013.6 |
| 20260507153536 | 15 | 306 | 0.0 | 4.8 | 0.00 | 0.03 | 0.00 | 59 | 1013.6 |